Location: Central Falls
(41.8900°N, 71.3929°W)
Time: 04:44:51
(UTC+00:00)

Tiros 1 - Pass Details

Date: 10 December 2023
Orbit: 625 x 658 km, 48.4° (Epoch: 01 March)

Event Time Altitude Azimuth Distance (km) Brightness Sun altitude
Rises 13:11:12 0° 295° (WNW) 2,989 10.0 9.5°
Reaches altitude 10° 13:13:38 10° 289° (WNW) 2,073 9.2 9.8°
Maximum altitude 13:18:11 45° 217° (SW) 890 8.1 10.4°
Drops below altitude 10° 13:22:42 10° 145° (SE) 2,052 12.1 11.0°
Sets 13:25:06 0° 139° (SE) 2,955 12.7 11.3°
